When you browse on this site, cookies collect data to enhance your experience and personalize the content and advertising you see.
Visit our Privacy Policy to learn more. By continuing to use the site, you agree to this use of cookies and data.
  • In Österreich
  • Länderverzeichnis
  • Für 7 Tage
  • Wassertemperatur
  • Wetterkarte
  • News
  • Widgets
  • user-avatar
    Anmelden

    Stündliche Wetter San Francisco

    Heute, 20 November, Mittwoch

    Zeit Temperatur Niederschläge Wind Luftdruck Luftfeuchtigkeit
    00:00 +19°C° 0.6 mm 1 m/S 637 mmHg 94%
    01:00 +19°C° 0.6 mm 1 m/S 637 mmHg 94%
    02:00 +18°C° 0.6 mm 1 m/S 636 mmHg 94%
    03:00 +18°C° 0.6 mm 1 m/S 636 mmHg 95%
    04:00 +18°C° 0.6 mm 1 m/S 636 mmHg 95%
    05:00 +16°C° 0.3 mm 0 m/S 637 mmHg 94%
    06:00 +17°C° 0.3 mm 0 m/S 637 mmHg 93%
    07:00 +17°C° 0.3 mm 0 m/S 638 mmHg 92%
    08:00 +19°C° 0.4 mm 0 m/S 638 mmHg 91%
    09:00 +22°C° 0.4 mm 1 m/S 639 mmHg 90%
    10:00 +23°C° 0.4 mm 1 m/S 639 mmHg 88%
    11:00 +23°C° 1 mm 1 m/S 638 mmHg 90%
    12:00 +22°C° 1 mm 1 m/S 637 mmHg 92%
    13:00 +22°C° 1 mm 1 m/S 636 mmHg 94%
    14:00 +22°C° 0.7 mm 1 m/S 636 mmHg 93%
    15:00 +22°C° 0.7 mm 1 m/S 636 mmHg 92%
    16:00 +22°C° 0.7 mm 1 m/S 636 mmHg 92%
    17:00 +21°C° 0.4 mm 1 m/S 636 mmHg 93%
    18:00 +20°C° 0.4 mm 1 m/S 636 mmHg 95%
    19:00 +17°C° 0.4 mm 0 m/S 636 mmHg 96%
    20:00 +19°C° 0.3 mm 1 m/S 636 mmHg 95%
    21:00 +19°C° 0.3 mm 1 m/S 637 mmHg 95%
    22:00 +18°C° 0.3 mm 1 m/S 637 mmHg 94%
    23:00 +18°C° 0.2 mm 1 m/S 637 mmHg 94%

    Morgen, 21 November, Donnerstag

    Zeit Temperatur Niederschläge Wind Luftdruck Luftfeuchtigkeit
    00:00 +18°C° 0.2 mm 1 m/S 636 mmHg 94%
    01:00 +18°C° 0.2 mm 1 m/S 636 mmHg 94%
    02:00 +16°C° 0 mm 1 m/S 636 mmHg 93%
    03:00 +16°C° 0 mm 1 m/S 636 mmHg 93%
    04:00 +16°C° 0 mm 1 m/S 636 mmHg 93%
    05:00 +18°C° 0 mm 1 m/S 636 mmHg 91%
    06:00 +19°C° 0 mm 1 m/S 637 mmHg 89%
    07:00 +17°C° 0 mm 0 m/S 637 mmHg 88%
    08:00 +21°C° 0.2 mm 1 m/S 638 mmHg 85%
    09:00 +22°C° 0.2 mm 1 m/S 638 mmHg 81%
    10:00 +24°C° 0.2 mm 1 m/S 639 mmHg 78%
    11:00 +24°C° 0.9 mm 1 m/S 638 mmHg 81%
    12:00 +24°C° 0.9 mm 1 m/S 637 mmHg 84%
    13:00 +24°C° 0.9 mm 1 m/S 636 mmHg 86%
    14:00 +23°C° 0.8 mm 1 m/S 636 mmHg 87%
    15:00 +23°C° 0.8 mm 1 m/S 636 mmHg 89%
    16:00 +23°C° 0.8 mm 1 m/S 635 mmHg 90%
    17:00 +22°C° 0.6 mm 1 m/S 635 mmHg 91%
    18:00 +20°C° 0.6 mm 1 m/S 635 mmHg 93%
    19:00 +19°C° 0.6 mm 1 m/S 635 mmHg 94%
    20:00 +19°C° 0.4 mm 1 m/S 636 mmHg 94%
    21:00 +18°C° 0.4 mm 1 m/S 636 mmHg 93%
    22:00 +18°C° 0.4 mm 1 m/S 637 mmHg 92%
    23:00 +18°C° 0.1 mm 1 m/S 636 mmHg 92%

    übermorgen, 22 November, Freitag

    Zeit Temperatur Niederschläge Wind Luftdruck Luftfeuchtigkeit
    00:00 +18°C° 0.1 mm 1 m/S 636 mmHg 92%
    01:00 +18°C° 0.1 mm 1 m/S 636 mmHg 91%
    02:00 +16°C° 0.2 mm 1 m/S 635 mmHg 92%
    03:00 +16°C° 0.2 mm 1 m/S 635 mmHg 92%
    04:00 +16°C° 0.2 mm 1 m/S 635 mmHg 92%
    05:00 +18°C° 0.2 mm 1 m/S 636 mmHg 92%
    06:00 +18°C° 0.2 mm 1 m/S 636 mmHg 92%
    07:00 +19°C° 0.2 mm 1 m/S 637 mmHg 91%
    08:00 +20°C° 0.3 mm 1 m/S 637 mmHg 90%
    09:00 +20°C° 0.3 mm 1 m/S 637 mmHg 89%
    10:00 +21°C° 0.3 mm 1 m/S 638 mmHg 88%
    11:00 +22°C° 0.3 mm 1 m/S 637 mmHg 84%
    12:00 +23°C° 0.3 mm 1 m/S 637 mmHg 80%
    13:00 +24°C° 0.3 mm 1 m/S 636 mmHg 76%
    14:00 +24°C° 0.7 mm 1 m/S 636 mmHg 79%
    15:00 +24°C° 0.7 mm 1 m/S 635 mmHg 82%
    16:00 +23°C° 0.7 mm 1 m/S 635 mmHg 85%
    17:00 +22°C° 1.1 mm 1 m/S 635 mmHg 88%
    18:00 +21°C° 1.1 mm 1 m/S 635 mmHg 92%
    19:00 +20°C° 1.1 mm 1 m/S 635 mmHg 95%
    20:00 +19°C° 0.5 mm 1 m/S 636 mmHg 95%
    21:00 +19°C° 0.5 mm 1 m/S 636 mmHg 94%
    22:00 +19°C° 0.5 mm 1 m/S 637 mmHg 94%
    23:00 +19°C° 0.2 mm 1 m/S 636 mmHg 94%

    23 November, Samstag

    Zeit Temperatur Niederschläge Wind Luftdruck Luftfeuchtigkeit
    00:00 +19°C° 0.2 mm 1 m/S 636 mmHg 94%
    01:00 +16°C° 0.2 mm 0 m/S 636 mmHg 93%
    02:00 +16°C° 0.2 mm 0 m/S 636 mmHg 94%
    03:00 +16°C° 0.2 mm 0 m/S 635 mmHg 94%
    04:00 +16°C° 0.2 mm 0 m/S 635 mmHg 95%
    05:00 +16°C° 0.2 mm 0 m/S 636 mmHg 94%
    06:00 +17°C° 0.2 mm 0 m/S 637 mmHg 94%
    07:00 +17°C° 0.2 mm 0 m/S 637 mmHg 94%
    08:00 +17°C° 0.8 mm 0 m/S 637 mmHg 93%
    09:00 +18°C° 0.8 mm 0 m/S 637 mmHg 93%
    10:00 +20°C° 0.8 mm 1 m/S 638 mmHg 93%
    11:00 +22°C° 0.4 mm 1 m/S 637 mmHg 89%
    12:00 +23°C° 0.4 mm 1 m/S 637 mmHg 85%
    13:00 +24°C° 0.4 mm 2 m/S 636 mmHg 80%
    14:00 +23°C° 0.8 mm 1 m/S 636 mmHg 85%
    15:00 +23°C° 0.8 mm 1 m/S 635 mmHg 89%
    16:00 +22°C° 0.8 mm 1 m/S 634 mmHg 93%
    17:00 +21°C° 0.4 mm 1 m/S 635 mmHg 94%
    18:00 +20°C° 0.4 mm 1 m/S 635 mmHg 95%
    19:00 +19°C° 0.4 mm 1 m/S 635 mmHg 97%
    20:00 +19°C° 0.4 mm 1 m/S 636 mmHg 96%
    21:00 +19°C° 0.4 mm 1 m/S 636 mmHg 95%
    22:00 +19°C° 0.4 mm 1 m/S 637 mmHg 94%
    23:00 +19°C° 0.2 mm 1 m/S 636 mmHg 94%

    24 November, Sonntag

    Zeit Temperatur Niederschläge Wind Luftdruck Luftfeuchtigkeit
    00:00 +19°C° 0.2 mm 1 m/S 636 mmHg 93%
    01:00 +19°C° 0.2 mm 1 m/S 636 mmHg 92%
    02:00 +18°C° 0 mm 1 m/S 636 mmHg 92%
    03:00 +16°C° 0 mm 0 m/S 635 mmHg 92%
    04:00 +16°C° 0 mm 0 m/S 635 mmHg 92%
    05:00 +16°C° 0 mm 0 m/S 636 mmHg 91%
    06:00 +17°C° 0 mm 0 m/S 636 mmHg 89%
    07:00 +17°C° 0 mm 0 m/S 637 mmHg 88%
    08:00 +21°C° 0.1 mm 1 m/S 638 mmHg 82%
    09:00 +23°C° 0.1 mm 1 m/S 638 mmHg 76%
    10:00 +25°C° 0.1 mm 1 m/S 639 mmHg 70%
    11:00 +24°C° 0.5 mm 1 m/S 638 mmHg 76%
    12:00 +24°C° 0.5 mm 1 m/S 637 mmHg 81%
    13:00 +23°C° 0.5 mm 1 m/S 636 mmHg 86%
    14:00 +23°C° 1.2 mm 1 m/S 635 mmHg 89%
    15:00 +23°C° 1.2 mm 1 m/S 635 mmHg 91%
    16:00 +22°C° 1.2 mm 1 m/S 634 mmHg 94%
    17:00 +21°C° 0.7 mm 1 m/S 634 mmHg 95%
    18:00 +19°C° 0.7 mm 0 m/S 635 mmHg 96%
    19:00 +18°C° 0.7 mm 0 m/S 635 mmHg 97%
    20:00 +18°C° 1.6 mm 0 m/S 636 mmHg 97%
    21:00 +20°C° 1.6 mm 1 m/S 636 mmHg 96%
    22:00 +19°C° 1.6 mm 1 m/S 636 mmHg 96%
    23:00 +19°C° 0.2 mm 1 m/S 636 mmHg 95%

    25 November, Montag

    Zeit Temperatur Niederschläge Wind Luftdruck Luftfeuchtigkeit
    00:00 +17°C° 0.2 mm 0 m/S 636 mmHg 95%
    01:00 +16°C° 0.2 mm 0 m/S 635 mmHg 95%
    02:00 +16°C° 0 mm 0 m/S 635 mmHg 95%
    03:00 +16°C° 0 mm 0 m/S 635 mmHg 94%
    04:00 +18°C° 0 mm 1 m/S 634 mmHg 94%
    05:00 +16°C° 0 mm 0 m/S 635 mmHg 93%
    06:00 +17°C° 0 mm 0 m/S 636 mmHg 91%
    07:00 +17°C° 0 mm 0 m/S 636 mmHg 90%
    08:00 +21°C° 0.1 mm 1 m/S 637 mmHg 84%
    09:00 +23°C° 0.1 mm 1 m/S 637 mmHg 78%
    10:00 +25°C° 0.1 mm 1 m/S 638 mmHg 72%
    11:00 +25°C° 0.7 mm 1 m/S 637 mmHg 76%
    12:00 +24°C° 0.7 mm 1 m/S 636 mmHg 81%
    13:00 +24°C° 0.7 mm 1 m/S 635 mmHg 85%
    14:00 +24°C° 0.8 mm 1 m/S 634 mmHg 86%
    15:00 +24°C° 0.8 mm 1 m/S 634 mmHg 87%
    16:00 +24°C° 0.8 mm 1 m/S 633 mmHg 88%
    17:00 +22°C° 0.9 mm 1 m/S 633 mmHg 91%
    18:00 +21°C° 0.9 mm 1 m/S 634 mmHg 93%
    19:00 +18°C° 0.9 mm 0 m/S 634 mmHg 96%
    20:00 +20°C° 0.9 mm 1 m/S 634 mmHg 95%
    21:00 +19°C° 0.9 mm 1 m/S 635 mmHg 95%
    22:00 +19°C° 0.9 mm 1 m/S 635 mmHg 94%
    23:00 +18°C° 0.2 mm 1 m/S 635 mmHg 94%
    Mehr zeigen